This is the latest recevied weather packets stored in our database for station/object F4IEI-10. If no packets are shown the sender has not sent any weather packets the latest 10 day(s).
| Time | Temp. | Humidity | Pressure | Rain* | Wind** | Luminosity | Snow |
|---|---|---|---|---|---|---|---|
| 1777909421 | 18.33° C | 86% | 1011.8 hPa | - | - | - | - |
| 1777908521 | 18.33° C | 86% | 1011.9 hPa | - | - | - | - |
| 1777907622 | 18.33° C | 87% | 1011.9 hPa | - | - | - | - |
| 1777906728 | 17.78° C | 86% | 1011.9 hPa | - | - | - | - |
| 1777905822 | 17.78° C | 89% | 1012 hPa | - | - | - | - |
| 1777904921 | 17.78° C | 88% | 1012.1 hPa | - | - | - | - |
| 1777904021 | 18.89° C | 84% | 1012.3 hPa | - | - | - | - |
| 1777903121 | 19.44° C | 88% | 1012.3 hPa | - | - | - | - |
| 1777902221 | 18.33° C | 87% | 1012.4 hPa | - | - | - | - |
| 1777901321 | 17.78° C | 85% | 1012.5 hPa | - | - | - | - |
| 1777900417 | 18.89° C | 85% | 1012.6 hPa | - | - | - | - |
| 1777899517 | 18.89° C | 86% | 1012.7 hPa | - | - | - | - |
| 1777898617 | 18.89° C | 90% | 1012.7 hPa | - | - | - | - |
| 1777897717 | 18.89° C | 92% | 1012.8 hPa | - | - | - | - |
| 1777896817 | 18.89° C | 88% | 1013 hPa | - | - | - | - |
| 1777895917 | 17.78° C | 96% | 1013.2 hPa | - | - | - | - |
| 1777895017 | 16.67° C | 96% | 1013.4 hPa | - | - | - | - |
| 1777894117 | 16.11° C | 98% | 1013.4 hPa | - | - | - | - |
| 1777893217 | 16.11° C | 99% | 1013.6 hPa | - | - | - | - |
| 1777892317 | 16.11° C | 99% | 1013.6 hPa | - | - | - | - |
| 1777891417 | 16.11° C | 100% | 1013.6 hPa | - | - | - | - |
| 1777890521 | 15.56° C | 100% | 1013.7 hPa | - | - | - | - |
| 1777889617 | 15.56° C | 100% | 1013.8 hPa | - | - | - | - |
| 1777888717 | 15° C | 100% | 1013.8 hPa | - | - | - | - |
| 1777887817 | 15° C | 100% | 1013.9 hPa | - | - | - | - |
* Rain since midnight (hover to see other rain measurements)
** Current wind speed in m/s (hover to see current wind gust speed)